Retour au catalogue

KUIPER-00113

ActifCommunicationsLEO
NORAD 65948·PAYLOAD·🇺🇸 United States

Lancé Oct 14, 2025 depuis Cape Canaveral Space Force Station

Loading…

Prochains Passages (prochaines 24 heures)

TLE

FraisSource: CelesTrak SupGP

Époque: Sep 14, 2026, 22:20 UTC

1 65948C 25228B   26257.93101852 -.00014000  00000+0 -18332-2 0  2574
2 65948  51.8971 238.7372 0000861  74.7397 167.9531 14.79933358    14

Suivez KUIPER-00113 en temps réel avec AllMySat

Download on the App Store